カタログに戻る

COSMOS 1570

運用中ナビゲーションLEO
NORAD 15031·PAYLOAD·🇷🇺 Russia

打ち上げ Jun 8, 1984 から Plesetsk Cosmodrome

Loading…

次のパス (今後24時間)

TLE

最新Source: Space-Track

元期: Sep 14, 2026, 15:27 UTC

1 15031U 84056A   26257.64393505  .00000068  00000-0  34553-4 0  9998
2 15031  74.0663 127.5060 0012681 177.5953 212.8141 14.32692263207246

AllMySatでCOSMOS 1570をリアルタイム追跡

Download on the App Store